This is the latest recevied weather packets stored in our database for station/object K8RRT. If no packets are shown the sender has not sent any weather packets the latest 10 day(s).
| Time | Temp. | Humidity | Pressure | Rain* | Wind** | Luminosity | Snow |
|---|---|---|---|---|---|---|---|
| 1788461989 | 36.11° C | 59% | 1012.3 hPa | 0 mm | - | 604 W/m² | - |
| 1788461685 | 35.56° C | 60% | 1012.4 hPa | 0 mm | - | 642 W/m² | - |
| 1788461385 | 35° C | 62% | 1012.6 hPa | 0 mm | - | 668 W/m² | - |
| 1788461082 | 35° C | 59% | 1012.6 hPa | 0 mm | - | 705 W/m² | - |
| 1788460782 | 35° C | 58% | 1012.4 hPa | 0 mm | - | 700 W/m² | - |
| 1788460476 | 35° C | 62% | 1012.6 hPa | 0 mm | - | 345 W/m² | - |
| 1788460176 | 35.56° C | 60% | 1012.7 hPa | 0 mm | - | 649 W/m² | - |
| 1788459875 | 36.11° C | 60% | 1012.8 hPa | 0 mm | - | 731 W/m² | - |
| 1788459571 | 36.11° C | 58% | 1012.6 hPa | 0 mm | - | 741 W/m² | - |
| 1788459265 | 36.11° C | 58% | 1012.5 hPa | 0 mm | - | 702 W/m² | - |
| 1788458964 | 35.56° C | 53% | 1012.5 hPa | 0 mm | - | 730 W/m² | - |
| 1788458659 | 35° C | 55% | 1012.9 hPa | 0 mm | - | 741 W/m² | - |
| 1788458359 | 35° C | 60% | 1012.7 hPa | 0 mm | - | 714 W/m² | - |
| 1788458053 | 35.56° C | 57% | 1012.9 hPa | 0 mm | - | 748 W/m² | - |
| 1788457747 | 35° C | 56% | 1013 hPa | 0 mm | - | 746 W/m² | - |
| 1788457443 | 34.44° C | 62% | 1012.9 hPa | 0 mm | - | 763 W/m² | - |
| 1788457137 | 33.89° C | 57% | 1013.1 hPa | 0 mm | - | 187 W/m² | - |
| 1788456832 | 33.89° C | 59% | 1013.2 hPa | 0 mm | - | 736 W/m² | - |
| 1788456528 | 34.44° C | 58% | 1013 hPa | 0 mm | - | 208 W/m² | - |
| 1788456222 | 33.89° C | 58% | 1013.1 hPa | 0 mm | - | 677 W/m² | - |
| 1788455918 | 34.44° C | 62% | 1012.9 hPa | 0 mm | - | 684 W/m² | - |
| 1788455613 | 34.44° C | 61% | 1013.2 hPa | 0 mm | - | 708 W/m² | - |
| 1788455312 | 33.89° C | 61% | 1013.2 hPa | 0 mm | - | 718 W/m² | - |
| 1788455008 | 33.89° C | 64% | 1013.3 hPa | 0 mm | - | 701 W/m² | - |
| 1788454706 | 33.89° C | 64% | 1013.3 hPa | 0 mm | - | 690 W/m² | - |
* Rain latest hour (hover to see other rain measurements)
** Current wind speed in m/s (hover to see current wind gust speed)